^^
 
Daily Summary for August 04, 2021 Units:  English    Metric   Both
Daily Weekly Monthly Yearly Custom
  Current: High: Low: Average:
Temperature: 96.1 °F 96.1 °F 67.8 °F 75.5 °F
Dew Point: 32.9 °F 44.7 °F 30.0 °F 39.5 °F
Humidity: 11% 40% 10% 29%
Wind Speed: 7mph 9mph 0mph 1.6mph
Wind Gust: 6mph 9mph - -
WindSW - - SE
Pressure: 30.0 in 30.0 in 29.9 in -
Precipitation: 0.000 in      
Historical Graphs
 
 
Tabular Data for August 04, 2021
Time Temperature Dew Point Pressure Wind Wind Speed Wind Gust Humidity Rainfall Rate (Hourly) solar
00:04 73.6 °F 37.6 °F 29.9 in Calm     27% 0.000 in 0.00 W/m2
00:09 73.5 °F 38.2 °F 29.9 in Calm     28% 0.000 in 0.00 W/m2
00:14 73.3 °F 39.9 °F 29.9 in Calm     30% 0.000 in 0.00 W/m2
00:19 73.2 °F 39.9 °F 29.9 in Calm     30% 0.000 in 0.00 W/m2
00:24 73.1 °F 39.6 °F 29.9 in Calm     30% 0.000 in 0.00 W/m2
00:29 72.9 °F 39.6 °F 29.9 in Calm     30% 0.000 in 0.00 W/m2
00:34 72.8 °F 40.3 °F 29.9 in Calm     31% 0.000 in 0.00 W/m2
00:39 72.7 °F 39.5 °F 29.9 in Calm     30% 0.000 in 0.00 W/m2
00:44 72.6 °F 39.3 °F 29.9 in Calm     30% 0.000 in 0.00 W/m2
00:49 72.4 °F 39.2 °F 29.9 in Calm     30% 0.000 in 0.00 W/m2
00:54 72.2 °F 39.0 °F 29.9 in Calm     30% 0.000 in 0.00 W/m2
00:59 72.1 °F 38.9 °F 29.9 in Calm     30% 0.000 in 0.00 W/m2
01:04 71.8 °F 39.5 °F 29.9 in Calm     31% 0.000 in 0.00 W/m2
01:08 71.7 °F 38.6 °F 29.9 in Calm     30% 0.000 in 0.00 W/m2
01:14 71.4 °F 39.2 °F 29.9 in Calm     31% 0.000 in 0.00 W/m2
01:19 71.3 °F 39.0 °F 29.9 in Calm     31% 0.000 in 0.00 W/m2
01:24 71.1 °F 38.9 °F 29.9 in Calm     31% 0.000 in 0.00 W/m2
01:29 71.0 °F 38.7 °F 29.9 in Calm     31% 0.000 in 0.00 W/m2
01:34 70.8 °F 38.6 °F 29.9 in Calm     31% 0.000 in 0.00 W/m2
01:39 70.6 °F 38.5 °F 29.9 in Calm     31% 0.000 in 0.00 W/m2
01:44 70.5 °F 38.4 °F 29.9 in Calm     31% 0.000 in 0.00 W/m2
01:49 70.4 °F 38.3 °F 29.9 in Calm     31% 0.000 in 0.00 W/m2
01:54 70.3 °F 38.2 °F 29.9 in Calm     31% 0.000 in 0.00 W/m2
01:59 70.2 °F 38.9 °F 29.9 in Calm     32% 0.000 in 0.00 W/m2
02:04 70.1 °F 38.0 °F 29.9 in Calm     31% 0.000 in 0.00 W/m2
02:09 70.1 °F 38.9 °F 29.9 in Calm     32% 0.000 in 0.00 W/m2
02:14 70.0 °F 38.8 °F 29.9 in Calm     32% 0.000 in 0.00 W/m2
02:19 69.9 °F 37.9 °F 29.9 in Calm     31% 0.000 in 0.00 W/m2
02:24 69.9 °F 37.9 °F 29.9 in Calm     31% 0.000 in 0.00 W/m2
02:29 69.9 °F 38.7 °F 29.9 in Calm     32% 0.000 in 0.00 W/m2
02:34 69.9 °F 38.7 °F 29.9 in Calm     32% 0.000 in 0.00 W/m2
02:39 69.8 °F 38.6 °F 29.9 in Calm     32% 0.000 in 0.00 W/m2
02:44 69.8 °F 38.6 °F 29.9 in Calm     32% 0.000 in 0.00 W/m2
02:49 69.7 °F 39.3 °F 29.9 in Calm     33% 0.000 in 0.00 W/m2
02:54 69.6 °F 39.1 °F 29.9 in Calm     33% 0.000 in 0.00 W/m2
02:59 69.4 °F 39.0 °F 29.9 in Calm     33% 0.000 in 0.00 W/m2
03:04 69.3 °F 38.9 °F 29.9 in Calm     33% 0.000 in 0.00 W/m2
03:09 69.1 °F 38.8 °F 29.9 in Calm     33% 0.000 in 0.00 W/m2
03:14 68.9 °F 38.6 °F 29.9 in Calm     33% 0.000 in 0.00 W/m2
03:19 68.8 °F 38.5 °F 29.9 in Calm     33% 0.000 in 0.00 W/m2
03:24 68.6 °F 39.0 °F 29.9 in Calm     34% 0.000 in 0.00 W/m2
03:29 68.5 °F 39.0 °F 29.9 in Calm     34% 0.000 in 0.00 W/m2
03:34 68.3 °F 38.9 °F 29.9 in Calm     34% 0.000 in 0.00 W/m2
03:39 68.2 °F 38.7 °F 29.9 in Calm     34% 0.000 in 0.00 W/m2
03:44 68.1 °F 38.7 °F 29.9 in Calm     34% 0.000 in 0.00 W/m2
03:49 67.9 °F 38.5 °F 29.9 in Calm     34% 0.000 in 0.00 W/m2
03:54 67.9 °F 38.5 °F 29.9 in Calm     34% 0.000 in 0.00 W/m2
03:59 67.9 °F 39.2 °F 29.9 in Calm     35% 0.000 in 0.00 W/m2
04:04 67.8 °F 38.4 °F 29.9 in Calm     34% 0.000 in 0.00 W/m2
04:09 67.8 °F 38.4 °F 29.9 in Calm     34% 0.000 in 0.00 W/m2
04:14 67.8 °F 38.4 °F 29.9 in Calm     34% 0.000 in 0.00 W/m2
04:19 67.8 °F 38.4 °F 29.9 in Calm     34% 0.000 in 0.00 W/m2
04:24 67.8 °F 38.4 °F 29.9 in NNW 2 mph 1 mph 34% 0.000 in 0.00 W/m2
04:29 67.8 °F 38.4 °F 29.9 in NNW 2 mph 2 mph 34% 0.000 in 0.00 W/m2
04:34 67.9 °F 38.5 °F 29.9 in Calm   2 mph 34% 0.000 in 0.00 W/m2
04:39 68.0 °F 38.6 °F 29.9 in Calm     34% 0.000 in 0.00 W/m2
04:44 68.1 °F 38.7 °F 29.9 in Calm     34% 0.000 in 0.00 W/m2
04:49 68.1 °F 38.7 °F 29.9 in NNW 2 mph   34% 0.000 in 0.00 W/m2
04:54 68.3 °F 38.1 °F 29.9 in NNW 2 mph 2 mph 33% 0.000 in 0.00 W/m2
04:59 68.4 °F 38.2 °F 29.9 in Calm   2 mph 33% 0.000 in 0.00 W/m2
05:04 68.5 °F 38.2 °F 29.9 in Calm     33% 0.000 in 0.00 W/m2
05:09 68.6 °F 38.2 °F 29.9 in Calm     33% 0.000 in 0.00 W/m2
05:14 68.7 °F 38.4 °F 29.9 in Calm     33% 0.000 in 0.00 W/m2
05:19 68.8 °F 38.4 °F 29.9 in Calm     33% 0.000 in 0.00 W/m2
05:24 68.9 °F 37.8 °F 29.9 in Calm     32% 0.000 in 0.00 W/m2
05:29 69.0 °F 37.9 °F 29.9 in Calm     32% 0.000 in 0.00 W/m2
05:34 69.1 °F 37.9 °F 29.9 in NNE 2 mph   32% 0.000 in 0.00 W/m2
05:39 69.1 °F 38.0 °F 29.9 in Calm   2 mph 32% 0.000 in 0.00 W/m2
05:43 69.2 °F 38.1 °F 29.9 in NNE 2 mph   32% 0.000 in 0.00 W/m2
05:49 69.3 °F 38.9 °F 29.9 in Calm   2 mph 33% 0.000 in 0.00 W/m2
05:54 69.3 °F 38.2 °F 29.9 in Calm     32% 0.000 in 0.00 W/m2
05:59 69.4 °F 38.2 °F 29.9 in Calm     32% 0.000 in 0.00 W/m2
06:04 69.4 °F 39.0 °F 29.9 in Calm     33% 0.000 in 0.00 W/m2
06:09 69.4 °F 38.2 °F 29.9 in Calm     32% 0.000 in 0.00 W/m2
06:14 69.4 °F 39.0 °F 29.9 in Calm     33% 0.000 in 0.00 W/m2
06:19 69.3 °F 38.2 °F 29.9 in Calm     32% 0.000 in 5.00 W/m2
06:24 69.3 °F 38.2 °F 29.9 in Calm     32% 0.000 in 5.00 W/m2
06:29 69.2 °F 38.1 °F 29.9 in NNE 2 mph   32% 0.000 in 7.00 W/m2
06:34 69.2 °F 37.3 °F 29.9 in Calm   2 mph 31% 0.000 in 7.00 W/m2
06:39 69.1 °F 37.2 °F 29.9 in Calm     31% 0.000 in 9.00 W/m2
06:44 69.1 °F 38.0 °F 29.9 in Calm     32% 0.000 in 11.00 W/m2
06:49 69.1 °F 38.0 °F 29.9 in NE 2 mph 2 mph 32% 0.000 in 11.00 W/m2
06:54 69.1 °F 38.0 °F 29.9 in Calm     32% 0.000 in 12.00 W/m2
06:59 69.2 °F 38.1 °F 29.9 in NE 4 mph 1 mph 32% 0.000 in 12.00 W/m2
07:04 69.3 °F 41.9 °F 30.0 in Calm   3 mph 37% 0.000 in 14.00 W/m2
07:09 69.5 °F 42.0 °F 29.9 in NNE 4 mph 1 mph 37% 0.000 in 16.00 W/m2
07:14 69.6 °F 39.1 °F 29.9 in NNE 2 mph 3 mph 33% 0.000 in 16.00 W/m2
07:19 69.8 °F 42.3 °F 29.9 in NE 2 mph 2 mph 37% 0.000 in 16.00 W/m2
07:24 69.9 °F 41.6 °F 29.9 in Calm   2 mph 36% 0.000 in 18.00 W/m2
07:29 70.0 °F 41.1 °F 29.9 in Calm     35% 0.000 in 18.00 W/m2
07:34 70.2 °F 44.7 °F 29.9 in Calm     40% 0.000 in 19.00 W/m2
07:39 70.3 °F 42.0 °F 29.9 in Calm     36% 0.000 in 21.00 W/m2
07:44 70.4 °F 40.7 °F 29.9 in Calm     34% 0.000 in 21.00 W/m2
07:49 70.6 °F 41.5 °F 29.9 in Calm     35% 0.000 in 23.00 W/m2
07:54 70.7 °F 41.7 °F 30.0 in Calm     35% 0.000 in 25.00 W/m2
07:59 70.8 °F 41.7 °F 30.0 in Calm     35% 0.000 in 26.00 W/m2
08:04 71.0 °F 42.0 °F 30.0 in Calm     35% 0.000 in 26.00 W/m2
08:09 71.2 °F 42.9 °F 30.0 in NE 2 mph   36% 0.000 in 32.00 W/m2
08:14 71.5 °F 43.8 °F 30.0 in Calm   2 mph 37% 0.000 in 56.00 W/m2
08:19 72.0 °F 43.9 °F 30.0 in Calm     37% 0.000 in 56.00 W/m2
08:24 72.5 °F 42.9 °F 30.0 in NE 2 mph   35% 0.000 in 167.00 W/m2
08:29 73.1 °F 42.3 °F 30.0 in Calm   2 mph 33% 0.000 in 336.00 W/m2
08:34 73.9 °F 42.4 °F 30.0 in NE 2 mph   33% 0.000 in 288.00 W/m2
08:39 74.6 °F 42.8 °F 30.0 in NE 2 mph 2 mph 32% 0.000 in 288.00 W/m2
08:44 75.3 °F 43.9 °F 30.0 in Calm   2 mph 33% 0.000 in 503.00 W/m2
08:49 75.8 °F 43.0 °F 30.0 in ENE 2 mph   31% 0.000 in 517.00 W/m2
08:54 76.6 °F 44.4 °F 30.0 in ENE 2 mph 2 mph 32% 0.000 in 536.00 W/m2
08:59 77.3 °F 44.3 °F 30.0 in ENE 2 mph 2 mph 31% 0.000 in 554.00 W/m2
09:04 78.0 °F 44.4 °F 30.0 in ENE 2 mph 2 mph 31% 0.000 in 570.00 W/m2
09:09 78.9 °F 43.6 °F 30.0 in ENE 2 mph 2 mph 29% 0.000 in 587.00 W/m2
09:14 79.6 °F 43.3 °F 30.0 in East 2 mph 2 mph 28% 0.000 in 599.00 W/m2
09:19 80.5 °F 44.0 °F 30.0 in SE 2 mph 2 mph 28% 0.000 in 619.00 W/m2
09:23 81.2 °F 44.0 °F 30.0 in SSE 2 mph 2 mph 27% 0.000 in 628.00 W/m2
09:29 82.2 °F 44.2 °F 30.0 in SE 2 mph 2 mph 27% 0.000 in 647.00 W/m2
09:34 83.2 °F 42.8 °F 30.0 in East 2 mph 2 mph 25% 0.000 in 663.00 W/m2
09:39 84.0 °F 42.2 °F 30.0 in East 2 mph 2 mph 23% 0.000 in 675.00 W/m2
09:44 84.8 °F 42.2 °F 30.0 in East 2 mph 2 mph 23% 0.000 in 693.00 W/m2
09:49 85.6 °F 39.7 °F 30.0 in East 2 mph 2 mph 20% 0.000 in 703.00 W/m2
09:54 86.2 °F 40.3 °F 30.0 in ENE 2 mph 2 mph 20% 0.000 in 717.00 W/m2
09:59 87.0 °F 39.7 °F 30.0 in SSE 2 mph 2 mph 19% 0.000 in 731.00 W/m2
10:04 87.8 °F 40.4 °F 30.0 in South 7 mph 4 mph 19% 0.000 in 740.00 W/m2
10:09 88.5 °F 42.3 °F 30.0 in SSW 6 mph 7 mph 20% 0.000 in 749.00 W/m2
10:14 89.0 °F 42.6 °F 30.0 in SSW 6 mph 6 mph 20% 0.000 in 761.00 W/m2
10:19 89.3 °F 41.6 °F 30.0 in South 4 mph 6 mph 19% 0.000 in 772.00 W/m2
10:24 89.7 °F 42.0 °F 30.0 in South 4 mph 3 mph 19% 0.000 in 773.00 W/m2
10:29 89.8 °F 43.4 °F 30.0 in SW 2 mph 3 mph 20% 0.000 in 793.00 W/m2
10:34 89.8 °F 43.4 °F 30.0 in South 6 mph 2 mph 20% 0.000 in 805.00 W/m2
10:39 89.9 °F 43.5 °F 30.0 in SE 4 mph 6 mph 20% 0.000 in 816.00 W/m2
10:44 90.0 °F 43.5 °F 30.0 in SW 7 mph 6 mph 20% 0.000 in 824.00 W/m2
10:49 90.0 °F 42.2 °F 30.0 in SW 4 mph 7 mph 19% 0.000 in 835.00 W/m2
10:54 90.2 °F 42.2 °F 30.0 in SSW 2 mph 3 mph 19% 0.000 in 844.00 W/m2
10:59 90.5 °F 42.5 °F 30.0 in SE 4 mph 2 mph 19% 0.000 in 854.00 W/m2
11:04 91.0 °F 42.7 °F 30.0 in NE 4 mph 3 mph 19% 0.000 in 865.00 W/m2
11:09 91.5 °F 38.9 °F 30.0 in ESE 9 mph 4 mph 16% 0.000 in 877.00 W/m2
11:14 92.1 °F 39.4 °F 30.0 in ENE 6 mph 9 mph 16% 0.000 in 884.00 W/m2
11:19 92.4 °F 39.4 °F 30.0 in South 6 mph 6 mph 16% 0.000 in 891.00 W/m2
11:24 92.8 °F 38.4 °F 30.0 in SE 6 mph 6 mph 15% 0.000 in 895.00 W/m2
11:29 93.1 °F 38.6 °F 30.0 in SSW 6 mph 6 mph 15% 0.000 in 904.00 W/m2
11:34 93.3 °F 37.0 °F 30.0 in SSW 7 mph 6 mph 14% 0.000 in 909.00 W/m2
11:39 93.4 °F 37.0 °F 30.0 in South 7 mph 7 mph 14% 0.000 in 918.00 W/m2
11:44 93.6 °F 35.3 °F 30.0 in SW 7 mph 7 mph 13% 0.000 in 925.00 W/m2
11:49 93.7 °F 33.4 °F 30.0 in South 6 mph 7 mph 12% 0.000 in 933.00 W/m2
11:54 93.9 °F 35.6 °F 30.0 in ENE 4 mph 6 mph 13% 0.000 in 937.00 W/m2
11:59 94.2 °F 35.6 °F 30.0 in ENE 9 mph 7 mph 13% 0.000 in 940.00 W/m2
12:04 94.6 °F 31.9 °F 30.0 in South 6 mph 9 mph 11% 0.000 in 946.00 W/m2
12:09 95.0 °F 32.0 °F 30.0 in SSE 7 mph 6 mph 11% 0.000 in 947.00 W/m2
12:14 95.3 °F 30.0 °F 30.0 in South 7 mph 7 mph 10% 0.000 in 953.00 W/m2
12:19 95.7 °F 32.8 °F 30.0 in SW 7 mph 7 mph 11% 0.000 in 958.00 W/m2
12:24 96.1 °F 32.9 °F 30.0 in SW 7 mph 6 mph 11% 0.000 in 958.00 W/m2
El Dorado Weather
Compliments of Weather Underground - 2.25 mb